Simultaneous Nadir Overpasses (SNOs) Predictions

Prediction of SNOs between NOAA-19 and METOP-C Satellite Orbit:

Table of predicted SNOs for the next 14.0 days since TLE Epoch: 4/21/2023
Index Date (NOAA-19) Time (NOAA-19) Lat,Lon (NOAA-19) SZA (NOAA-19 ) Date (METOP-C) Time (METOP-C) Lat,Lon (METOP-C) SZA (METOP-C ) Distance(km) Time Diff (sec)
1 04/22/2023 13:37:53 -80.93,-169.73 109.63 04/22/2023 13:39:05 -80.93,-169.86 109.61 2.40 72
2 04/22/2023 14:28:49 80.93, -2.67 70.34 04/22/2023 14:29:47 80.93, -2.73 70.36 1.27 58
3 04/22/2023 15:19:53 -80.93, 164.48 109.68 04/22/2023 15:20:27 -80.93, 164.65 109.66 2.92 34
4 04/22/2023 16:10:47 80.93, -27.72 70.36 04/22/2023 16:11:08 80.94, -27.86 70.36 2.53 21
5 04/22/2023 17:01:51 -80.93, 139.44 109.66 04/22/2023 17:01:48 -80.94, 139.52 109.65 1.46 3
6 04/22/2023 17:52:46 80.93, -53.14 70.35 04/22/2023 17:52:29 80.95, -52.99 70.37 2.89 17
7 04/22/2023 18:43:50 -80.93, 114.02 109.68 04/22/2023 18:43:10 -80.93, 114.03 109.69 0.44 40
8 04/22/2023 19:34:45 80.94, -78.56 70.33 04/22/2023 19:33:51 80.94, -78.48 70.32 1.47 54
9 05/04/2023 00:59:38 -80.93, 19.74 113.19 05/04/2023 01:00:37 -80.93, 19.58 113.19 2.93 59
10 05/04/2023 01:50:32 80.93,-172.98 66.80 05/04/2023 01:51:18 80.94,-172.93 66.83 1.00 46
11 05/04/2023 02:41:37 -80.93, -5.69 113.21 05/04/2023 02:41:58 -80.94, -5.56 113.18 2.33 21
12 05/04/2023 03:32:31 80.93, 161.59 66.79 05/04/2023 03:32:40 80.93, 161.57 66.79 0.50 9
13 05/04/2023 04:23:36 -80.93, -31.12 113.22 05/04/2023 04:23:20 -80.93, -31.06 113.22 1.04 16
14 05/04/2023 05:14:29 80.93, 136.53 66.81 05/04/2023 05:14:01 80.94, 136.43 66.79 1.86 28
15 05/04/2023 06:05:34 -80.93, -56.18 113.20 05/04/2023 06:04:41 -80.94, -56.20 113.22 0.71 53



Historial Predications of SNOs between NOAA-19 and METOP-C
